Starlink 30875

operational
NORAD ID: 58224 Int'l Des: 2023-170 Owner: SPXS Country: US Constellation: starlink
LEOCIRCULAR

Über Starlink 30875

Beschreibung wird geladen...

Live-Position

3D-Globus wird geladen...

Nächste Überflüge

Höhenverlauf

Altitude vs Time

uPlot chart will show altitude changes over time

Zweizeiliger Elementsatz

1 58224U 23170U 25258.20515316 .00000349 00000-0 40923-4 0 9997
2 58224 43.0036 69.2998 0001403 264.4292 95.6391 15.02539182103888
Epoch: 15. Sept. 2025 • Age: 9 hours

Aktueller Status

Höhe 568.4 km
Geschwindigkeit 7.58 km/s
Subsatellitenpunkt -35.19°S, 170.01°E
Startdatum 4. Nov. 2023
Alter 1.8 years
Typ internet

Technische Details

Klassifizierung Payload
Masse 730.00 kg
Trockenmasse 700.00 kg
Gesamtmasse 730.00 kg
Länge 0.30 m
Durchmesser 4.10 m
Spannweite 29.00 m
Form Box + pan
Hersteller SPXS
Bus-Typ Starlink V2M
Phasenstatus In Orbit
Besitzer/Staat SPXS/US

Große Konstellationen

Loading constellations...